Regional Weather Roundup
Issued by NWS

Home | Current Version | Previous Version | Graphics & Text | Print | Product List | Glossary Off
Versions: 1 2 3 4 5 6 7 8 9 10 11 12 13 14 15 16 17 18 19 20 21 22 23 24 25 26 27 28 29 30 31 32 33 34 35 36 37 38 39 40 41 42 43 44 45 46 47 48 49 50

127
ASUS43 KDTX 141910
RWRMI
MICHIGAN HOURLY REGIONAL WEATHER ROUNDUP
NATIONAL WEATHER SERVICE DETROIT/PONTIAC MI
200 PM EST SUN FEB 14 2016

NOTE: "FAIR" INDICATES FEW OR NO CLOUDS BELOW 12,000 FEET WITH NO
SIGNIFICANT WEATHER AND/OR OBSTRUCTION TO VISIBILITY.

MIZ047>049-052>055-059>063-066>070-074>076-081>083-142000-
SOUTHEAST LOWER MICHIGAN

CITY           SKY/WX    TMP DP  RH WIND       PRES   REMARKS
ADRIAN         CLOUDY    17   5  59 SE12      30.33F WCI   4
ALMA           SUNNY     19   3  49 SE8G17    30.33F WCI   9
ANN ARBOR      CLOUDY    16   4  59 S12       30.33F WCI   3
BAD AXE        SUNNY     15   0  51 S7        30.36F WCI   5
CARO           SUNNY     16   0  48 S6        30.35F WCI   7
DETROIT CITY   CLOUDY    15   3  59 SE10      30.38F WCI   2
DETROIT        PTSUNNY   16   4  59 SE14      30.40S WCI   2
FLINT          SUNNY     18   0  45 S14       30.34F WCI   4
GROSSE ILE     CLOUDY    18   3  53 S9        30.38S WCI   6
HILLSDALE      CLOUDY    17   4  56 SE13G18   30.26F WCI   3
HOWELL         CLOUDY    17   4  56 S14       30.31F WCI   3

CITY           SKY/WX    TMP DP  RH WIND       PRES   REMARKS
JACKSON        CLOUDY    17   3  54 SE13G18   30.28F WCI   4
LAMBERTVILLE   CLOUDY    19   4  53 S8        30.35F WCI   9
LANSING        CLOUDY    18   3  52 S13       30.31F WCI   5
LAPEER         FAIR      17   1  49 S8        30.34F WCI   6
MASON          CLOUDY    17   4  58 S12G17    30.30F WCI   4
MONROE         CLOUDY    18   5  57 SE8       30.37F WCI   7
MT. CLEMENS    PTSUNNY   17   4  57 S14       30.37F WCI   2
PONTIAC        CLOUDY    15   1  53 SE12      30.32F WCI   2
PORT HOPE        N/A     15   0  51 VRB6      30.36F WCI   6
PORT HURON     CLOUDY    14   5  67 SE10      30.39F WCI   1
TRI CITIES     SUNNY     17   0  47 S8        30.35F WCI   7
MIDLAND        FAIR      16   0  49 S9        30.34F WCI   4
TROY           CLOUDY    19   2  48 S10       30.38F WCI   8
SAGINAW HB     SUNNY     18   3  53 SE7       30.35F WCI   8
$$
MIZ043>046-050>051-056>058-064>065-071>073-077>080-142000-
SOUTHWEST LOWER MICHIGAN

CITY           SKY/WX    TMP DP  RH WIND       PRES   REMARKS
BATTLE CREEK   CLOUDY    17   3  54 SE12      30.27F WCI   4
BENTON HARBOR  CLOUDY    17   4  56 SE16G22   30.25F WCI   2
BIG RAPIDS     SUNNY     17   0  46 SE15      30.27F WCI   3
COLDWATER      CLOUDY    17   4  56 SE14      30.28F WCI   3
FREMONT        FAIR      17  -2  43 S8        30.27F WCI   6
HOLLAND        CLOUDY    16   3  56 E13       30.26F WCI   2
GRAND RAPIDS   PTSUNNY   19   3  49 SE13      30.28F WCI   6
IONIA          FAIR      18   3  53 SE14      30.29F WCI   4
KALAMAZOO      CLOUDY    16   3  56 S10       30.26F WCI   4
LUDINGTON      SUNNY     18   1  46 SE12G18   30.27F WCI   5
MARSHALL       CLOUDY    19   4  54 S8        30.27F WCI   8
MOUNT PLEASANT SUNNY     19   1  44 SE8G16    30.31F WCI   9
MUSKEGON       CLOUDY    17   2  51 S14       30.27F WCI   3
SOUTH HAVEN    CLOUDY    17   4  58 SE12      30.26F WCI   4
$$
MIZ016>042-142000-
NORTHERN LOWER MICHIGAN

CITY           SKY/WX    TMP DP  RH WIND       PRES   REMARKS
ALPENA         SUNNY     17   0  47 S10       30.33F WCI   5
BEAVER ISLAND  CLOUDY    19  10  67 S13G20    30.26S WCI   6
BELLAIRE       SUNNY     19   3  50 S8        30.29F WCI   9
CADILLAC       SUNNY     15   1  54 SE14      30.23S WCI   0
CHARLEVOIX     SUNNY     20   4  51 SE10      30.30F WCI   8
FRANKFORT      MOSUNNY   21   4  48 SE12      30.26F WCI  10
GAYLORD        SUNNY     15   0  51 S8        30.23F WCI   4
GRAYLING       SUNNY     15   1  53 SE10      30.26F WCI   2
HARBOR SPRINGS SUNNY     19   2  47 SE7       30.27F WCI   9
HOUGHTON LAKE  SUNNY     14   0  53 S9        30.27F WCI   2
MANISTEE       SUNNY     19   0  42 SE13      30.27F WCI   7
OSCODA         SUNNY     17   0  47 S10       30.33F WCI   5
PELLSTON       CLOUDY    18   3  52 SE9       30.28F WCI   7
ROGERS CITY    SUNNY     15   1  54 SE9       30.33F HAZE    WCI   3
TRAVERSE CITY  PTSUNNY   20   2  45 S8        30.28F WCI  10
$$
MIZ007>008-015-142000-
EASTERN UPPER MICHIGAN

CITY           SKY/WX    TMP DP  RH WIND       PRES   REMARKS
KINROSS        CLOUDY    18   9  68 E9        30.28S WCI   6
MACKINAC ISLAN CLOUDY    17   6  61 S7        30.28F WCI   8
NEWBERRY       LGT SNOW  16  11  82 SE13      30.23F WCI   2
S. S. MARIE    CLOUDY    13   1  59 E7        30.29F WCI   3
MUNISING         N/A     20   8  60 S13G18    30.19F WCI   7
$$
MIZ004>006-011>014-085-142000-
CENTRAL UPPER MICHIGAN

CITY           SKY/WX    TMP DP  RH WIND       PRES   REMARKS
MANISTIQUE     CLOUDY    19  11  71 S3        30.23F
ESCANABA       CLOUDY    18   9  68 S10       30.23S WCI   6
MENOMINEE      CLOUDY    16  10  79 E6        30.21F WCI   7
SAWYER-GWINN   MOSUNNY   18   7  62 S21G28    30.14F WCI   1
$$
MIZ001>003-009>011-084-142000-
WESTERN UPPER MICHIGAN

CITY           SKY/WX    TMP DP  RH WIND       PRES   REMARKS
IRON MOUNTAIN  CLOUDY    20   6  55 S21G29    30.13F WCI   4
HOUGHTON       SUNNY     16   0  49 S9        30.07F WCI   4
COPPER HARBOR    N/A     18   4  54 SW10G17   30.12F WCI   6
IRONWOOD       CLOUDY    19  -9  27 S14G21    29.99F WCI   6
$$

ABBREVIATIONS USED IN REMARKS
   TC - TEMPERATURE IN CELSIUS
  WCI - WIND CHILL INDEX
   HX - HEAT INDEX
  VSB - VISIBILITY





USA.gov is the U.S. government's official web portal to all federal, state and local government web resources and services.